| time (UTC) | temp F | wind direction | speed MPH | gust MPH | rain 1hr in | rain 24hr in | rain mn in | humidity % | barometer mb |
| 20260905113153 | 0 | 0.0 | 1.0 | 0.00 | 0.00 | 0.00 | |||
| 20260905112128 | 0 | 0.0 | 0.0 | 0.00 | 0.00 | 0.00 | |||
| 20260905111138 | 0 | 0.0 | 0.0 | 0.00 | 0.00 | 0.00 | |||
| 20260905110149 | 0 | 0.0 | 0.0 | 0.00 | 0.00 | 0.00 | |||
| 20260905105129 | 0 | 0.0 | 0.0 | 0.00 | 0.00 | 0.00 | |||
| 20260905104118 | 0 | 0.0 | 0.0 | 0.00 | 0.00 | 0.00 | |||
| 20260905103127 | 0 | 0.0 | 0.0 | 0.00 | 0.00 | 0.00 | |||
| 20260905102129 | 0 | 315 | 1.0 | 2.0 | 0.00 | 0.00 | 0.00 | ||
| 20260905101119 | 0 | 0.0 | 1.0 | 0.00 | 0.00 | 0.00 | |||
| 20260905100129 | 0 | 0.0 | 1.0 | 0.00 | 0.00 | 0.00 | |||
| 20260905095128 | 0 | 0.0 | 1.0 | 0.00 | 0.00 | 0.00 | |||
| 20260905094118 | 0 | 0.0 | 1.0 | 0.00 | 0.00 | 0.00 | |||
| 20260905093128 | 0 | 0.0 | 1.0 | 0.00 | 0.00 | 0.00 | |||
| 20260905092148 | 0 | 315 | 1.0 | 4.0 | 0.00 | 0.00 | 0.00 | ||
| 20260905091139 | 0 | 293 | 1.0 | 2.0 | 0.00 | 0.00 | 0.00 | ||
| 20260905090128 | 0 | 293 | 2.0 | 3.0 | 0.00 | 0.00 | 0.00 | ||
| 20260905085149 | 0 | 0.0 | 1.0 | 0.00 | 0.00 | 0.00 | |||
| 20260905084118 | 0 | 23 | 2.0 | 3.0 | 0.00 | 0.00 | 0.00 | ||
| 20260905083129 | 0 | 338 | 5.0 | 7.0 | 0.00 | 0.00 | 0.00 | ||
| 20260905082128 | 0 | 338 | 1.0 | 2.0 | 0.00 | 0.00 | 0.00 | ||
| 20260905081118 | 0 | 23 | 1.0 | 2.0 | 0.00 | 0.00 | 0.00 | ||
| 20260905080128 | 0 | 23 | 3.0 | 4.0 | 0.00 | 0.00 | 0.00 | ||
| 20260905075128 | 0 | 338 | 1.0 | 1.0 | 0.00 | 0.00 | 0.00 | ||
| 20260905074123 | 0 | 23 | 5.0 | 8.0 | 0.00 | 0.00 | 0.00 | ||
| 20260905073133 | 0 | 0 | 3.0 | 4.0 | 0.00 | 0.00 | 0.00 | ||
| 20260905072129 | 0 | 0 | 5.0 | 8.0 | 0.00 | 0.00 | 0.00 | ||
| 20260905071119 | 0 | 338 | 4.0 | 8.0 | 0.00 | 0.00 | 0.00 | ||
| 20260905070127 | 0 | 23 | 3.0 | 4.0 | 0.00 | 0.00 | 0.00 | ||
| 20260905065128 | 0 | 45 | 3.0 | 4.0 | 0.00 | 0.00 | 0.00 | ||
| 20260905064124 | 0 | 23 | 5.0 | 6.0 | 0.00 | 0.00 | 0.00 | ||
| 20260905063129 | 0 | 23 | 3.0 | 5.0 | 0.00 | 0.00 | 0.00 | ||
| 20260905062128 | 0 | 23 | 6.0 | 10.0 | 0.00 | 0.00 | 0.00 | ||
| 20260905061118 | 0 | 23 | 5.0 | 8.0 | 0.00 | 0.00 | 0.00 | ||
| 20260905060127 | 0 | 0 | 5.0 | 9.0 | 0.00 | 0.00 | 0.00 | ||
| 20260905055128 | 0 | 338 | 3.0 | 6.0 | 0.00 | 0.00 | 0.00 | ||
| 20260905054118 | 0 | 23 | 3.0 | 4.0 | 0.00 | 0.00 | 0.00 | ||
| 20260905053126 | 0 | 23 | 4.0 | 6.0 | 0.00 | 0.00 | 0.00 | ||
| 20260905052128 | 0 | 45 | 6.0 | 11.0 | 0.00 | 0.00 | 0.00 | ||
| 20260905051123 | 0 | 0 | 7.0 | 10.0 | 0.00 | 0.00 | 0.00 | ||
| 20260905050126 | 0 | 23 | 5.0 | 10.0 | 0.00 | 0.00 | 0.00 | ||
| 20260905045132 | 0 | 23 | 6.0 | 11.0 | 0.00 | 0.00 | 0.00 | ||
| 20260905044118 | 0 | 23 | 5.0 | 7.0 | 0.00 | 0.00 | 0.00 | ||
| 20260905043129 | 0 | 45 | 7.0 | 10.0 | 0.00 | 0.00 | 0.00 | ||
| 20260905042128 | 0 | 23 | 4.0 | 7.0 | 0.00 | 0.00 | 0.00 | ||
| 20260905041123 | 0 | 23 | 6.0 | 9.0 | 0.00 | 0.00 | 0.00 | ||
| 20260905040130 | 0 | 0 | 4.0 | 8.0 | 0.00 | 0.00 | 0.00 | ||
| 20260905035154 | 0 | 23 | 7.0 | 10.0 | 0.00 | 0.00 | 0.00 | ||
| 20260905034118 | 0 | 0 | 6.0 | 10.0 | 0.00 | 0.00 | 0.00 | ||
| 20260905033133 | 0 | 338 | 5.0 | 7.0 | 0.00 | 0.00 | 0.00 | ||
| 20260905032128 | 0 | 23 | 7.0 | 9.0 | 0.00 | 0.00 | 0.00 | ||
| 20260905031118 | 0 | 23 | 5.0 | 8.0 | 0.00 | 0.00 | 0.00 | ||
| 20260905030127 | 0 | 68 | 8.0 | 11.0 | 0.00 | 0.00 | 0.00 | ||
| 20260905025128 | 0 | 45 | 3.0 | 8.0 | 0.00 | 0.00 | 0.00 | ||
| 20260905024118 | 0 | 23 | 7.0 | 10.0 | 0.00 | 0.00 | 0.00 | ||
| 20260905023130 | 0 | 0 | 5.0 | 9.0 | 0.00 | 0.00 | 0.00 | ||
| 20260905022128 | 0 | 45 | 5.0 | 8.0 | 0.00 | 0.00 | 0.00 | ||
| 20260905021118 | 0 | 315 | 3.0 | 6.0 | 0.00 | 0.00 | 0.00 | ||
| 20260905020152 | 0 | 315 | 6.0 | 9.0 | 0.00 | 0.00 | 0.00 | ||
| 20260905015128 | 0 | 45 | 4.0 | 6.0 | 0.00 | 0.00 | 0.00 | ||
| 20260905014148 | 0 | 23 | 4.0 | 7.0 | 0.00 | 0.00 | 0.00 | ||
| 20260905013133 | 0 | 0 | 5.0 | 8.0 | 0.00 | 0.00 | 0.00 | ||
| 20260905012128 | 0 | 23 | 5.0 | 8.0 | 0.00 | 0.00 | 0.00 | ||
| 20260905011117 | 0 | 23 | 4.0 | 8.0 | 0.00 | 0.00 | 0.00 | ||
| 20260905010130 | 0 | 0 | 6.0 | 10.0 | 0.00 | 0.00 | 0.00 | ||
| 20260905005129 | 0 | 23 | 2.0 | 3.0 | 0.00 | 0.00 | 0.00 | ||
| 20260905004117 | 0 | 0 | 6.0 | 9.0 | 0.00 | 0.00 | 0.00 | ||
| 20260905003127 | 0 | 23 | 6.0 | 9.0 | 0.00 | 0.00 | 0.00 | ||
| 20260905002128 | 0 | 45 | 3.0 | 6.0 | 0.00 | 0.00 | 0.00 | ||
| 20260905001122 | 0 | 0 | 4.0 | 6.0 | 0.00 | 0.00 | 0.00 | ||
| 20260905000126 | 0 | 0 | 6.0 | 7.0 | 0.00 | 0.00 | 0.00 | ||
| 20260904235127 | 0 | 0 | 4.0 | 8.0 | 0.00 | 0.00 | 0.00 | ||
| 20260904234122 | 0 | 23 | 2.0 | 4.0 | 0.00 | 0.00 | 0.00 | ||
| 20260904233128 | 0 | 23 | 2.0 | 8.0 | 0.00 | 0.00 | 0.00 | ||
| 20260904232128 | 0 | 0 | 4.0 | 5.0 | 0.00 | 0.00 | 0.00 | ||
| 20260904231117 | 0 | 0 | 1.0 | 2.0 | 0.00 | 0.00 | 0.00 | ||
| 20260904230148 | 0 | 45 | 1.0 | 2.0 | 0.00 | 0.00 | 0.00 | ||
| 20260904225127 | 0 | 90 | 1.0 | 4.0 | 0.00 | 0.00 | 0.00 | ||
| 20260904224138 | 0 | 90 | 1.0 | 4.0 | 0.00 | 0.00 | 0.00 | ||
| 20260904223127 | 0 | 90 | 1.0 | 3.0 | 0.00 | 0.00 | 0.00 | ||
| 20260904222128 | 0 | 90 | 2.0 | 3.0 | 0.00 | 0.00 | 0.00 | ||
| 20260904221138 | 0 | 113 | 1.0 | 2.0 | 0.00 | 0.00 | 0.00 | ||
| 20260904220146 | 0 | 113 | 1.0 | 2.0 | 0.00 | 0.00 | 0.00 | ||
| 20260904215127 | 0 | 113 | 1.0 | 1.0 | 0.00 | 0.00 | 0.00 | ||
| 20260904214138 | 0 | 113 | 1.0 | 2.0 | 0.00 | 0.00 | 0.00 | ||
| 20260904213151 | 0 | 113 | 1.0 | 1.0 | 0.00 | 0.00 | 0.00 | ||
| 20260904213023 | 0 | 0.0 | 0.0 | 0.00 | 0.00 | 0.00 | |||
| 20260904212905 | 0 | 0.0 | 0.0 | 0.00 | 0.00 | 0.00 | |||
| 20260904211947 | 0 | 0.0 | 1.0 | 0.00 | 0.00 | 0.00 | |||
| 20260904210937 | 0 | 0.0 | 0.0 | 0.00 | 0.00 | 0.00 | |||
| 20260904205933 | 0 | 0.0 | 0.0 | 0.00 | 0.00 | 0.00 | |||
| 20260904204929 | 0 | 0.0 | 0.0 | 0.00 | 0.00 | 0.00 | |||
| 20260904203942 | 0 | 0.0 | 0.0 | 0.00 | 0.00 | 0.00 | |||
| 20260904202931 | 0 | 0.0 | 0.0 | 0.00 | 0.00 | 0.00 | |||
| 20260904201958 | 0 | 0.0 | 1.0 | 0.00 | 0.00 | 0.00 | |||
| 20260904200916 | 0 | 0.0 | 0.0 | 0.00 | 0.00 | 0.00 | |||
| 20260904195931 | 0 | 0.0 | 1.0 | 0.00 | 0.00 | 0.00 | |||
| 20260904194927 | 0 | 0.0 | 1.0 | 0.00 | 0.00 | 0.00 | |||
| 20260904193937 | 0 | 0.0 | 0.0 | 0.00 | 0.00 | 0.00 | |||
| 20260904192931 | 0 | 0.0 | 1.0 | 0.00 | 0.00 | 0.00 | |||
| 20260904191927 | 0 | 0.0 | 0.0 | 0.00 | 0.00 | 0.00 | |||
| 20260904190921 | 0 | 0.0 | 0.0 | 0.00 | 0.00 | 0.00 | |||
| 20260904190012 | 0 | 0.0 | 1.0 | 0.00 | 0.00 | 0.00 | |||
| 20260904184929 | 0 | 0.0 | 1.0 | 0.00 | 0.00 | 0.00 | |||
| 20260904183959 | 0 | 0.0 | 0.0 | 0.00 | 0.00 | 0.00 | |||
| 20260904182933 | 0 | 0.0 | 1.0 | 0.00 | 0.00 | 0.00 | |||
| 20260904181929 | 0 | 0.0 | 0.0 | 0.00 | 0.00 | 0.00 | |||
| 20260904180938 | 0 | 0.0 | 1.0 | 0.00 | 0.00 | 0.00 | |||
| 20260904175938 | 0 | 0.0 | 0.0 | 0.00 | 0.00 | 0.00 | |||
| 20260904174929 | 0 | 0.0 | 0.0 | 0.00 | 0.00 | 0.00 | |||
| 20260904173916 | 0 | 0.0 | 0.0 | 0.00 | 0.00 | 0.00 | |||
| 20260904172934 | 0 | 0.0 | 0.0 | 0.00 | 0.00 | 0.00 | |||
| 20260904171929 | 0 | 0.0 | 0.0 | 0.00 | 0.00 | 0.00 | |||
| 20260904170918 | 0 | 0.0 | 0.0 | 0.00 | 0.00 | 0.00 | |||
| 20260904165957 | 0 | 0.0 | 0.0 | 0.00 | 0.00 | 0.00 | |||
| 20260904164950 | 0 | 0.0 | 0.0 | 0.00 | 0.00 | 0.00 | |||
| 20260904163918 | 0 | 0.0 | 1.0 | 0.00 | 0.00 | 0.00 | |||
| 20260904162932 | 0 | 0.0 | 0.0 | 0.00 | 0.00 | 0.00 | |||
| 20260904161929 | 0 | 0.0 | 1.0 | 0.00 | 0.00 | 0.00 | |||
| 20260904160958 | 0 | 0.0 | 1.0 | 0.00 | 0.00 | 0.00 | |||
| 20260904155937 | 0 | 0.0 | 0.0 | 0.00 | 0.00 | 0.00 | |||
| 20260904154928 | 0 | 113 | 1.0 | 1.0 | 0.00 | 0.00 | 0.00 | ||
| 20260904153918 | 0 | 0.0 | 0.0 | 0.00 | 0.00 | 0.00 | |||
| 20260904152937 | 0 | 0.0 | 0.0 | 0.00 | 0.00 | 0.00 | |||
| 20260904151929 | 0 | 0.0 | 0.0 | 0.00 | 0.00 | 0.00 | |||
| 20260904150923 | 0 | 0.0 | 0.0 | 0.00 | 0.00 | 0.00 | |||
| 20260904145932 | 0 | 0.0 | 0.0 | 0.00 | 0.00 | 0.00 | |||
| 20260904144928 | 0 | 0.0 | 1.0 | 0.00 | 0.00 | 0.00 | |||
| 20260904143918 | 0 | 113 | 1.0 | 2.0 | 0.00 | 0.00 | 0.00 | ||
| 20260904142933 | 0 | 0.0 | 1.0 | 0.00 | 0.00 | 0.00 | |||
| 20260904141929 | 0 | 113 | 1.0 | 2.0 | 0.00 | 0.00 | 0.00 | ||
| 20260904140918 | 0 | 0.0 | 2.0 | 0.00 | 0.00 | 0.00 | |||
| 20260904135931 | 0 | 113 | 1.0 | 2.0 | 0.00 | 0.00 | 0.00 | ||
| 20260904134927 | 0 | 113 | 1.0 | 2.0 | 0.00 | 0.00 | 0.00 | ||
| 20260904133922 | 0 | 113 | 1.0 | 2.0 | 0.00 | 0.00 | 0.00 | ||
| 20260904132930 | 0 | 113 | 2.0 | 2.0 | 0.00 | 0.00 | 0.00 | ||
| 20260904131927 | 0 | 113 | 1.0 | 3.0 | 0.00 | 0.00 | 0.00 | ||
| 20260904130917 | 0 | 0.0 | 1.0 | 0.00 | 0.00 | 0.00 | |||
| 20260904130012 | 0 | 113 | 1.0 | 2.0 | 0.00 | 0.00 | 0.00 | ||
| 20260904124928 | 0 | 113 | 1.0 | 1.0 | 0.00 | 0.00 | 0.00 | ||
| 20260904123917 | 0 | 113 | 1.0 | 1.0 | 0.00 | 0.00 | 0.00 | ||
| 20260904122930 | 0 | 0.0 | 1.0 | 0.00 | 0.00 | 0.00 | |||
| 20260904121927 | 0 | 113 | 1.0 | 2.0 | 0.00 | 0.00 | 0.00 | ||
| 20260904120921 | 0 | 0.0 | 0.0 | 0.00 | 0.00 | 0.00 | |||
| 20260904115931 | 0 | 0.0 | 1.0 | 0.00 | 0.00 | 0.00 | |||
| 20260904114928 | 0 | 113 | 1.0 | 2.0 | 0.00 | 0.00 | 0.00 | ||
| 20260904113921 | 0 | 0.0 | 1.0 | 0.00 | 0.00 | 0.00 |